Theta_e
344 344 345 344 343 344 344 345 345 345 346 346 347 346 346 346 346 347 348 348 347 344 341 340 340 339 339 337 336 337 332 337
344 343 342 341 341 341 341 342 343 343 344 343 343 343 344 344 344 345 347 346 345 343 340 339 339 338 337 336 335 335 332 335
345 344 343 341 341 342 341 342 342 342 343 342 339 343 343 343 342 342 345 344 343 341 340 338 337 337 336 335 334 332 333 335
346 345 343 344 346 341 339 341 340 342 343 343 342 342 341 344 341 340 343 342 341 340 338 337 336 333 333 334 331 332 331 333
338 346 346 345 345 342 341 341 340 340 342 342 342 343 341 341 338 340 340 340 338 337 335 334 334 332 332 331 331 331 332 334
318 330 343 343 343 343 343 342 341 340 340 342 341 340 338 339 337 338 339 338 335 334 333 333 332 332 332 332 331 330 332 332
314 318 323 329 340 340 339 341 341 341 340 341 343 340 338 338 338 338 338 337 336 334 334 333 332 332 332 332 330 331 331 332
311 312 315 317 322 338 339 338 337 340 341 342 343 342 339 339 338 338 337 337 336 335 334 334 332 332 331 332 330 331 334 330
307 309 310 310 315 321 331 337 340 337 342 340 343 342 340 339 339 338 337 336 335 334 334 334 333 332 331 332 333 331 334 331
305 307 306 306 309 316 324 330 337 337 339 341 342 343 342 340 340 339 337 335 334 333 333 332 332 331 329 328 332 332 331 332
303 303 303 304 307 312 313 319 330 337 339 339 339 341 341 342 341 340 337 335 334 334 332 333 330 330 330 328 328 327 330 331
301 302 302 302 304 304 307 312 317 323 335 334 337 339 341 342 341 340 337 338 334 333 332 331 331 330 331 328 328 329 329 330
299 298 299 299 299 298 301 303 307 316 327 328 327 338 339 341 341 340 338 337 336 332 329 329 329 329 324 325 323 325 326 329
297 297 296 297 297 297 299 301 306 310 315 312 318 330 337 339 339 338 339 338 334 331 329 328 330 328 325 318 314 318 324 325
296 296 295 295 295 296 296 299 301 303 303 306 310 315 319 334 337 338 337 339 336 335 332 329 327 330 330 320 312 313 315 322
295 295 295 295 294 294 293 293 294 298 299 304 305 312 317 324 335 337 337 337 335 334 335 332 330 326 324 328 322 319 315 312
293 295 294 294 293 292 292 291 293 296 299 300 304 309 313 319 327 334 335 336 334 333 333 331 331 328 328 326 321 321 321 318
291 291 293 293 293 292 291 290 291 292 296 298 300 305 309 317 326 331 333 336 332 334 333 332 331 330 330 327 324 322 319 319
291 290 289 291 291 291 290 290 291 291 293 296 298 302 306 311 317 327 331 331 333 333 330 330 329 329 328 325 323 323 323 322
289 288 288 290 289 290 290 290 291 292 293 294 297 300 302 306 312 321 326 329 330 329 323 322 324 325 324 323 322 321 323 324
Wind_Speed
7 7 7 8 9 9 9 9 10 9 9 9 10 9 9 9 9 8 7 7 6 6 7 7 6 6 4 2 7 5 5 8
10 9 7 5 6 7 9 10 10 10 9 8 8 9 10 9 9 8 8 9 8 8 8 7 6 4 3 0 3 4 6 6
7 9 9 7 6 5 7 10 12 12 9 9 8 5 6 9 9 11 11 10 8 8 8 8 7 6 4 2 1 1 5 3
9 8 9 10 7 6 5 5 4 7 8 8 5 6 6 9 10 12 12 11 10 9 9 8 7 4 3 5 3 4 4 4
10 8 8 8 7 5 4 4 4 4 9 8 7 7 5 6 4 6 6 9 4 6 6 4 6 4 4 4 5 4 4 5
20 14 3 8 5 6 6 5 5 5 6 9 7 4 5 6 5 7 7 6 7 6 4 5 6 7 6 7 6 5 5 3
21 22 20 16 6 5 5 7 6 6 6 8 8 7 5 5 6 7 7 8 8 8 7 7 7 8 6 8 7 7 9 6
20 20 19 20 18 12 4 3 6 5 7 8 9 8 7 5 7 9 9 9 9 9 9 8 8 7 6 8 7 7 10 9
20 19 19 19 17 16 12 6 5 4 6 7 11 9 10 11 7 7 9 9 11 8 10 9 8 7 8 8 8 7 10 10
20 18 21 21 17 14 12 12 5 6 4 4 7 12 9 10 9 7 6 9 9 10 10 9 10 9 7 5 7 7 8 11
23 23 20 20 18 14 14 15 13 4 6 5 7 8 14 9 9 8 6 7 9 9 10 10 9 9 10 7 6 6 9 11
20 18 21 21 13 13 11 11 11 13 5 6 12 11 14 14 7 9 7 9 8 9 11 9 9 8 9 7 7 8 7 10
16 20 21 17 14 15 13 13 12 10 12 12 16 18 18 14 13 13 8 11 13 10 7 11 7 6 4 1 1 4 6 9
14 15 17 15 13 12 10 11 7 11 9 13 14 19 14 16 15 13 17 11 12 9 11 7 8 6 8 3 4 3 4 6
14 15 15 15 18 12 12 9 8 8 13 13 14 18 20 20 18 18 15 13 13 13 11 13 11 9 14 6 3 7 3 2
12 14 16 14 17 15 17 13 13 11 11 12 16 17 18 18 21 19 17 12 14 15 12 13 12 11 2 7 1 4 4 2
10 14 14 16 14 15 14 17 13 12 11 16 16 16 17 19 18 20 17 13 13 13 14 12 10 11 11 6 3 2 3 4
9 13 16 16 16 18 17 18 19 17 16 14 13 14 15 19 17 16 17 14 14 11 13 13 13 12 11 7 6 8 6 5
9 10 13 13 14 15 16 18 18 18 17 13 18 14 15 18 20 16 14 15 14 11 10 10 10 9 9 6 3 2 3 7
8 9 12 15 17 15 14 17 12 12 12 14 13 13 14 21 21 15 15 12 10 8 3 4 6 7 10 6 5 4 6 6
Wind_Direction
141 143 149 155 163 165 163 162 159 167 175 175 168 163 162 166 163 159 157 155 155 156 164 163 165 171 184 151 110 117 114 136
158 153 149 165 170 174 170 169 163 166 173 175 169 165 163 166 170 170 169 170 170 170 170 168 171 179 206 83 98 107 143 150
159 158 158 161 167 184 186 183 172 165 170 177 168 179 178 176 176 175 175 179 178 178 175 171 169 177 191 221 66 156 158 158
162 165 167 163 174 170 182 203 201 175 171 180 189 192 188 185 185 176 177 177 177 178 177 175 171 182 199 199 198 143 162 181
323 169 168 167 179 164 184 189 197 208 181 178 196 201 195 196 184 172 166 176 170 169 169 181 189 195 202 200 215 155 161 166
7 357 254 177 172 168 184 189 194 205 214 182 185 213 215 206 182 174 172 170 174 174 179 190 207 209 204 207 202 155 155 152
14 12 16 352 278 180 185 189 188 198 205 207 188 197 216 194 189 184 184 175 178 177 181 198 210 215 209 203 210 158 157 160
11 12 10 360 357 324 268 213 200 195 199 208 206 198 206 200 196 199 190 185 188 181 183 193 212 207 204 201 211 154 158 164
14 5 7 3 351 342 334 309 267 217 208 206 210 206 206 212 207 203 196 190 191 187 192 190 202 208 205 189 187 180 165 169
6 6 1 358 351 340 347 323 291 274 247 211 215 217 216 218 216 210 192 197 193 194 193 194 199 203 205 208 188 176 163 166
2 359 1 354 347 351 345 341 325 276 280 276 236 227 226 216 215 220 201 201 206 197 203 199 194 197 204 199 192 186 175 167
0 357 355 352 352 347 343 343 338 330 283 281 290 260 235 225 214 222 216 224 216 209 200 200 194 190 197 196 207 201 178 176
10 356 354 350 354 347 345 341 327 320 322 272 281 262 241 234 227 223 212 219 220 213 198 196 208 167 120 72 245 211 195 202
11 3 356 348 350 337 330 323 313 310 334 324 322 309 262 228 224 225 227 218 223 195 194 201 211 195 212 117 189 295 234 190
11 359 356 349 346 334 333 321 321 330 331 322 317 313 299 288 228 220 227 222 218 215 205 204 209 207 215 155 147 215 144 212
5 359 353 349 348 341 339 334 330 327 316 309 311 306 302 291 269 230 222 227 228 231 228 214 213 222 215 238 137 144 161 148
2 355 349 346 348 345 339 335 322 317 313 316 312 309 309 305 303 255 231 222 234 224 223 218 214 219 223 185 202 227 89 96
3 360 343 349 343 343 340 330 328 324 324 321 323 316 314 311 300 289 245 222 228 217 231 217 221 228 224 206 203 200 199 175
359 355 344 341 339 340 336 327 326 324 321 321 319 319 320 313 320 301 263 238 239 223 225 223 224 230 217 188 187 194 130 271
357 353 343 340 337 336 336 330 324 318 320 315 309 316 315 313 309 292 282 251 234 222 177 152 158 159 152 159 175 172 235 225